ヒル彗星

C/2008 J6 ( Hill )

English version
Home page
Updated on April 6, 2013

---------------------------------------------------------------------

・ プロフィール

発見日 2008年5月14日
発見光度 15.5等
発見者 R. E. Hill (Catalina Sky Survey)

・ 写真集

・ 軌道要素

Epoch 2008 Apr. 4.0 TT = JDT 2454560.5
T 2008 Apr. 10.94427 TT                                 MPC
q   2.0035177            (2000.0)            P               Q
z  -0.0011756      Peri.   10.70318     +0.57979905     +0.52488070
 +/-0.0000023      Node   298.17918     -0.78998408     +0.17497866
e   1.0023553      Incl.   44.98777     -0.19939462     +0.83299623
From 337 observations 2007 Aug. 24-2008 Dec. 7, mean residual 0".6.

・ 星図

・ 光度変化

        m1 = 8.3 + 5 logΔ + 15.0 log r(t + 100)

---------------------------------------------------------------------

軌道要素はM.P.E.C. 2013-B90に掲載されたものです。
星図はステラナビゲータ Ver.8 (アストロアーツ) で作成したものです。
光度グラフはComet for Windowsで作成したものです。

---------------------------------------------------------------------

Copyright(C) Seiichi Yoshida (comet@aerith.net). All rights reserved.